This is the latest recevied weather packets stored in our database for station/object KI6SYE. If no packets are shown the sender has not sent any weather packets the latest 1 day(s).
| Time | Temp. | Humidity | Pressure | Rain* | Wind** | Luminosity | Snow |
|---|---|---|---|---|---|---|---|
| 1778107553 | 18.89° C | 77% | 1016.2 hPa | 0 mm | - | 515 W/m² | - |
| 1778106945 | 18.89° C | 75% | 1016.4 hPa | 0 mm | - | 541 W/m² | - |
| 1778106642 | 18.89° C | 77% | 1016.3 hPa | 0 mm | - | 557 W/m² | - |
| 1778106035 | 18.33° C | 76% | 1016.4 hPa | 0 mm | - | 580 W/m² | - |
| 1778105126 | 18.33° C | 79% | 1016.7 hPa | 0 mm | - | 616 W/m² | - |
| 1778104822 | 18.89° C | 76% | 1016.8 hPa | 0 mm | - | 629 W/m² | - |
| 1778103912 | 18.33° C | 78% | 1016.9 hPa | 0 mm | - | 661 W/m² | - |
| 1778102700 | 18.89° C | 77% | 1016.9 hPa | 0 mm | - | 699 W/m² | - |
| 1778101783 | 18.89° C | 77% | 1017.3 hPa | 0 mm | - | 726 W/m² | - |
| 1778101177 | 18.33° C | 78% | 1017.4 hPa | 0 mm | - | 739 W/m² | - |
| 1778100873 | 18.33° C | 79% | 1017.3 hPa | 0 mm | - | 745 W/m² | - |
| 1778100267 | 18.89° C | 76% | 1017.5 hPa | 0 mm | - | 756 W/m² | - |
| 1778099964 | 18.33° C | 80% | 1017.6 hPa | 0 mm | - | 762 W/m² | - |
| 1778099661 | 18.33° C | 79% | 1017.6 hPa | 0 mm | - | 764 W/m² | - |
| 1778097236 | 18.33° C | 77% | 1017.6 hPa | 0 mm | - | 790 W/m² | - |
| 1778094507 | 18.33° C | 76% | 1018.2 hPa | 0 mm | - | 790 W/m² | - |
| 1778094203 | 18.33° C | 77% | 1018.1 hPa | 0 mm | - | 790 W/m² | - |
| 1778093900 | 17.78° C | 78% | 1018.1 hPa | 0 mm | - | 790 W/m² | - |
| 1778092991 | 17.78° C | 79% | 1018.3 hPa | 0 mm | - | 777 W/m² | - |
| 1778091778 | 17.78° C | 79% | 1018.4 hPa | 0 mm | - | 754 W/m² | - |
| 1778090566 | 17.78° C | 78% | 1018.4 hPa | 0 mm | - | 724 W/m² | - |
| 1778089354 | 17.22° C | 78% | 1018.4 hPa | 0 mm | - | 691 W/m² | - |
| 1778088141 | 17.22° C | 77% | 1018.2 hPa | 0 mm | - | 651 W/m² | - |
| 1778087536 | 17.78° C | 76% | 1018.4 hPa | 0 mm | - | 627 W/m² | - |
| 1778086930 | 17.78° C | 76% | 1018.1 hPa | 0 mm | - | 364 W/m² | - |
* Rain latest hour (hover to see other rain measurements)
** Current wind speed in m/s (hover to see current wind gust speed)